| time (UTC) | temp C | wind direction | speed KPH | gust KPH | rain 1hr cm | rain 24hr cm | rain mn cm | humidity % | barometer mb |
| 20260904011012 | 18 | 169 | 19.3 | 0.0 | 0.00 | 0.00 | 0.00 | 29 | 1002.9 |
| 20260904010508 | 18 | 165 | 20.9 | 0.0 | 0.00 | 0.00 | 0.00 | 29 | 1002.9 |
| 20260904010012 | 18 | 180 | 22.5 | 0.0 | 0.00 | 0.00 | 0.00 | 29 | 1002.8 |
| 20260904005606 | 18 | 171 | 20.9 | 0.0 | 0.00 | 0.00 | 0.00 | 29 | 1002.8 |
| 20260904005105 | 18 | 188 | 20.9 | 0.0 | 0.00 | 0.00 | 0.00 | 29 | 1002.9 |
| 20260904004601 | 18 | 189 | 22.5 | 0.0 | 0.00 | 0.00 | 0.00 | 29 | 1002.9 |
| 20260904004056 | 19 | 166 | 24.1 | 0.0 | 0.00 | 0.00 | 0.00 | 29 | 1003.0 |
| 20260904003550 | 19 | 171 | 25.7 | 0.0 | 0.00 | 0.00 | 0.00 | 29 | 1003.1 |
| 20260904003019 | 19 | 175 | 27.4 | 0.0 | 0.00 | 0.00 | 0.00 | 29 | 1003.0 |
| 20260904002513 | 19 | 178 | 29.0 | 0.0 | 0.00 | 0.00 | 0.00 | 28 | 1003.0 |
| 20260904002015 | 20 | 189 | 32.2 | 0.0 | 0.00 | 0.00 | 0.00 | 28 | 1003.1 |
| 20260904001516 | 19 | 180 | 30.6 | 0.0 | 0.00 | 0.00 | 0.00 | 28 | 1003.1 |
| 20260904001015 | 20 | 131 | 27.4 | 0.0 | 0.00 | 0.00 | 0.00 | 29 | 1003.1 |
| 20260904000502 | 20 | 163 | 25.7 | 0.0 | 0.00 | 0.00 | 0.00 | 27 | 1002.9 |
| 20260904000105 | 20 | 171 | 27.4 | 0.0 | 0.00 | 0.00 | 0.00 | 28 | 1002.9 |
| 20260903235556 | 20 | 182 | 27.4 | 0.0 | 0.00 | 0.00 | 0.00 | 27 | 1003.0 |
| 20260903235047 | 21 | 176 | 27.4 | 0.0 | 0.00 | 0.00 | 0.00 | 28 | 1003.0 |
| 20260903234608 | 20 | 172 | 27.4 | 0.0 | 0.00 | 0.00 | 0.00 | 28 | 1002.8 |
| 20260903234051 | 20 | 185 | 29.0 | 0.0 | 0.00 | 0.00 | 0.00 | 28 | 1002.9 |
| 20260903233542 | 20 | 177 | 29.0 | 0.0 | 0.00 | 0.00 | 0.00 | 28 | 1002.9 |
| 20260903233049 | 19 | 227 | 30.6 | 0.0 | 0.00 | 0.00 | 0.00 | 29 | 1002.9 |
| 20260903232540 | 19 | 160 | 32.2 | 0.0 | 0.00 | 0.00 | 0.00 | 29 | 1002.9 |
| 20260903232044 | 20 | 198 | 30.6 | 0.0 | 0.00 | 0.00 | 0.00 | 29 | 1002.9 |
| 20260903231541 | 19 | 177 | 27.4 | 0.0 | 0.00 | 0.00 | 0.00 | 31 | 1002.9 |
| 20260903231043 | 20 | 172 | 27.4 | 0.0 | 0.00 | 0.00 | 0.00 | 29 | 1002.8 |
| 20260903230555 | 20 | 170 | 27.4 | 0.0 | 0.00 | 0.00 | 0.00 | 30 | 1003.0 |
| 20260903230057 | 18 | 173 | 24.1 | 0.0 | 0.00 | 0.00 | 0.00 | 32 | 1002.9 |
| 20260903225532 | 18 | 202 | 27.4 | 0.0 | 0.00 | 0.00 | 0.00 | 32 | 1003.0 |
| 20260903225106 | 18 | 167 | 29.0 | 0.0 | 0.00 | 0.00 | 0.00 | 32 | 1003.0 |
| 20260903224043 | 18 | 175 | 27.4 | 0.0 | 0.00 | 0.00 | 0.00 | 32 | 1003.0 |
| 20260903223548 | 18 | 144 | 25.7 | 0.0 | 0.00 | 0.00 | 0.00 | 32 | 1003.1 |
| 20260903223056 | 18 | 169 | 27.4 | 0.0 | 0.00 | 0.00 | 0.00 | 32 | 1003.2 |
| 20260903222503 | 18 | 200 | 33.8 | 0.0 | 0.00 | 0.00 | 0.00 | 32 | 1003.3 |
| 20260903222024 | 20 | 205 | 33.8 | 0.0 | 0.00 | 0.00 | 0.00 | 30 | 1003.3 |
| 20260903221540 | 20 | 171 | 32.2 | 0.0 | 0.00 | 0.00 | 0.00 | 30 | 1003.3 |
| 20260903221056 | 20 | 201 | 32.2 | 0.0 | 0.00 | 0.00 | 0.00 | 31 | 1003.2 |
| 20260903220512 | 19 | 196 | 33.8 | 0.0 | 0.00 | 0.00 | 0.00 | 32 | 1003.1 |
| 20260903220051 | 18 | 198 | 33.8 | 0.0 | 0.00 | 0.00 | 0.00 | 32 | 1003.1 |
| 20260903215540 | 19 | 186 | 33.8 | 0.0 | 0.00 | 0.00 | 0.00 | 32 | 1003.0 |
| 20260903215044 | 19 | 193 | 33.8 | 0.0 | 0.00 | 0.00 | 0.00 | 32 | 1003.0 |
| 20260903214554 | 20 | 129 | 32.2 | 0.0 | 0.00 | 0.00 | 0.00 | 31 | 1002.8 |
| 20260903214007 | 19 | 157 | 30.6 | 0.0 | 0.00 | 0.00 | 0.00 | 31 | 1002.9 |
| 20260903213521 | 20 | 151 | 33.8 | 0.0 | 0.00 | 0.00 | 0.00 | 32 | 1002.9 |
| 20260903213043 | 20 | 171 | 33.8 | 0.0 | 0.00 | 0.00 | 0.00 | 30 | 1002.9 |
| 20260903212554 | 20 | 200 | 35.4 | 0.0 | 0.00 | 0.00 | 0.00 | 31 | 1002.9 |
| 20260903212006 | 20 | 155 | 33.8 | 0.0 | 0.00 | 0.00 | 0.00 | 31 | 1003.0 |
| 20260903211507 | 20 | 130 | 35.4 | 0.0 | 0.00 | 0.00 | 0.00 | 30 | 1003.1 |
| 20260903211026 | 20 | 171 | 35.4 | 0.0 | 0.00 | 0.00 | 0.00 | 31 | 1003.0 |
| 20260903210547 | 20 | 161 | 32.2 | 0.0 | 0.00 | 0.00 | 0.00 | 31 | 1003.1 |
| 20260903210057 | 20 | 198 | 30.6 | 0.0 | 0.00 | 0.00 | 0.00 | 30 | 1003.0 |
| 20260903205548 | 20 | 191 | 32.2 | 0.0 | 0.00 | 0.00 | 0.00 | 31 | 1003.0 |
| 20260903205100 | 20 | 130 | 32.2 | 0.0 | 0.00 | 0.00 | 0.00 | 31 | 1003.2 |
| 20260903204603 | 20 | 163 | 32.2 | 0.0 | 0.00 | 0.00 | 0.00 | 31 | 1003.2 |
| 20260903204058 | 20 | 146 | 32.2 | 0.0 | 0.00 | 0.00 | 0.00 | 32 | 1003.4 |
| 20260903203543 | 20 | 200 | 33.8 | 0.0 | 0.00 | 0.00 | 0.00 | 31 | 1003.2 |
| 20260903203022 | 20 | 186 | 30.6 | 0.0 | 0.00 | 0.00 | 0.00 | 32 | 1003.5 |
| 20260903202512 | 20 | 174 | 29.0 | 0.0 | 0.00 | 0.00 | 0.00 | 31 | 1003.5 |
| 20260903202053 | 20 | 196 | 30.6 | 0.0 | 0.00 | 0.00 | 0.00 | 32 | 1003.5 |
| 20260903201601 | 20 | 184 | 30.6 | 0.0 | 0.00 | 0.00 | 0.00 | 33 | 1003.6 |
| 20260903201102 | 20 | 190 | 29.0 | 0.0 | 0.00 | 0.00 | 0.00 | 32 | 1003.5 |
| 20260903200502 | 20 | 170 | 30.6 | 0.0 | 0.00 | 0.00 | 0.00 | 32 | 1003.5 |
| 20260903200007 | 20 | 142 | 30.6 | 0.0 | 0.00 | 0.00 | 0.00 | 33 | 1003.5 |
| 20260903195516 | 20 | 173 | 29.0 | 0.0 | 0.00 | 0.00 | 0.00 | 32 | 1003.5 |
| 20260903195038 | 20 | 119 | 27.4 | 0.0 | 0.00 | 0.00 | 0.00 | 32 | 1003.7 |
| 20260903194547 | 20 | 167 | 27.4 | 0.0 | 0.00 | 0.00 | 0.00 | 34 | 1003.6 |
| 20260903194043 | 19 | 150 | 30.6 | 0.0 | 0.00 | 0.00 | 0.00 | 34 | 1003.9 |
| 20260903193541 | 19 | 166 | 30.6 | 0.0 | 0.00 | 0.00 | 0.00 | 34 | 1004.0 |
| 20260903193103 | 18 | 171 | 30.6 | 0.0 | 0.00 | 0.00 | 0.00 | 34 | 1003.8 |
| 20260903192558 | 19 | 148 | 30.6 | 0.0 | 0.00 | 0.00 | 0.00 | 35 | 1003.8 |
| 20260903192004 | 19 | 202 | 32.2 | 0.0 | 0.00 | 0.00 | 0.00 | 34 | 1003.7 |
| 20260903191508 | 19 | 146 | 32.2 | 0.0 | 0.00 | 0.00 | 0.00 | 34 | 1003.6 |
| 20260903191022 | 19 | 186 | 32.2 | 0.0 | 0.00 | 0.00 | 0.00 | 34 | 1003.4 |
| 20260903190530 | 19 | 178 | 30.6 | 0.0 | 0.00 | 0.00 | 0.00 | 34 | 1003.5 |
| 20260903190031 | 18 | 150 | 30.6 | 0.0 | 0.00 | 0.00 | 0.00 | 35 | 1003.4 |
| 20260903185542 | 18 | 154 | 30.6 | 0.0 | 0.00 | 0.00 | 0.00 | 35 | 1003.5 |
| 20260903185041 | 18 | 186 | 32.2 | 0.0 | 0.00 | 0.00 | 0.00 | 35 | 1003.3 |
| 20260903184549 | 18 | 132 | 30.6 | 0.0 | 0.00 | 0.00 | 0.00 | 35 | 1003.3 |
| 20260903184041 | 18 | 175 | 27.4 | 0.0 | 0.00 | 0.00 | 0.00 | 35 | 1003.4 |
| 20260903183543 | 18 | 161 | 27.4 | 0.0 | 0.00 | 0.00 | 0.00 | 36 | 1003.6 |
| 20260903183039 | 18 | 129 | 30.6 | 0.0 | 0.00 | 0.00 | 0.00 | 37 | 1003.7 |
| 20260903182544 | 18 | 146 | 30.6 | 0.0 | 0.00 | 0.00 | 0.00 | 36 | 1003.9 |
| 20260903182048 | 18 | 177 | 32.2 | 0.0 | 0.00 | 0.00 | 0.00 | 36 | 1003.8 |
| 20260903181544 | 18 | 159 | 33.8 | 0.0 | 0.00 | 0.00 | 0.00 | 38 | 1003.8 |
| 20260903181045 | 18 | 149 | 33.8 | 0.0 | 0.00 | 0.00 | 0.00 | 38 | 1003.8 |
| 20260903180551 | 17 | 165 | 33.8 | 0.0 | 0.00 | 0.00 | 0.00 | 38 | 1004.0 |
| 20260903180051 | 17 | 130 | 32.2 | 0.0 | 0.00 | 0.00 | 0.00 | 38 | 1003.8 |
| 20260903175558 | 17 | 190 | 33.8 | 0.0 | 0.00 | 0.00 | 0.00 | 38 | 1004.0 |
| 20260903175056 | 17 | 144 | 32.2 | 0.0 | 0.00 | 0.00 | 0.00 | 38 | 1004.0 |
| 20260903174548 | 17 | 125 | 33.8 | 0.0 | 0.00 | 0.00 | 0.00 | 39 | 1004.1 |
| 20260903174053 | 16 | 179 | 33.8 | 0.0 | 0.00 | 0.00 | 0.00 | 41 | 1004.0 |
| 20260903173558 | 16 | 178 | 30.6 | 0.0 | 0.00 | 0.00 | 0.00 | 41 | 1004.1 |
| 20260903173107 | 16 | 161 | 30.6 | 0.0 | 0.00 | 0.00 | 0.00 | 41 | 1004.2 |
| 20260903172520 | 16 | 173 | 29.0 | 0.0 | 0.00 | 0.00 | 0.00 | 42 | 1004.0 |
| 20260903172030 | 15 | 150 | 30.6 | 0.0 | 0.00 | 0.00 | 0.00 | 42 | 1004.0 |
| 20260903171538 | 15 | 166 | 32.2 | 0.0 | 0.00 | 0.00 | 0.00 | 42 | 1003.9 |
| 20260903171039 | 15 | 185 | 32.2 | 0.0 | 0.00 | 0.00 | 0.00 | 42 | 1003.9 |
| 20260903170539 | 15 | 200 | 30.6 | 0.0 | 0.00 | 0.00 | 0.00 | 42 | 1003.9 |
| 20260903170049 | 16 | 157 | 29.0 | 0.0 | 0.00 | 0.00 | 0.00 | 40 | 1003.9 |
| 20260903165551 | 16 | 207 | 29.0 | 0.0 | 0.00 | 0.00 | 0.00 | 41 | 1003.9 |
| 20260903165102 | 16 | 192 | 29.0 | 0.0 | 0.00 | 0.00 | 0.00 | 41 | 1003.9 |
| 20260903164540 | 15 | 178 | 29.0 | 0.0 | 0.00 | 0.00 | 0.00 | 43 | 1003.8 |
| 20260903164040 | 15 | 163 | 27.4 | 0.0 | 0.00 | 0.00 | 0.00 | 43 | 1003.9 |
| 20260903163550 | 15 | 190 | 27.4 | 0.0 | 0.00 | 0.00 | 0.00 | 41 | 1004.0 |
| 20260903163102 | 15 | 205 | 25.7 | 0.0 | 0.00 | 0.00 | 0.00 | 41 | 1004.2 |
| 20260903162500 | 15 | 188 | 25.7 | 0.0 | 0.00 | 0.00 | 0.00 | 42 | 1004.2 |
| 20260903162100 | 15 | 171 | 27.4 | 0.0 | 0.00 | 0.00 | 0.00 | 43 | 1004.1 |
| 20260903161606 | 14 | 156 | 27.4 | 0.0 | 0.00 | 0.00 | 0.00 | 43 | 1004.1 |
| 20260903161003 | 14 | 184 | 27.4 | 0.0 | 0.00 | 0.00 | 0.00 | 43 | 1004.1 |
| 20260903160502 | 14 | 140 | 27.4 | 0.0 | 0.00 | 0.00 | 0.00 | 43 | 1004.1 |
| 20260903160015 | 14 | 127 | 27.4 | 0.0 | 0.00 | 0.00 | 0.00 | 43 | 1004.2 |
| 20260903155606 | 13 | 175 | 29.0 | 0.0 | 0.00 | 0.00 | 0.00 | 43 | 1004.2 |
| 20260903155015 | 13 | 192 | 25.7 | 0.0 | 0.00 | 0.00 | 0.00 | 42 | 1004.3 |
| 20260903154046 | 13 | 165 | 25.7 | 0.0 | 0.00 | 0.00 | 0.00 | 42 | 1004.1 |
| 20260903153536 | 13 | 172 | 27.4 | 0.0 | 0.00 | 0.00 | 0.00 | 42 | 1004.1 |
| 20260903153045 | 13 | 183 | 29.0 | 0.0 | 0.00 | 0.00 | 0.00 | 43 | 1004.1 |
| 20260903152553 | 13 | 184 | 27.4 | 0.0 | 0.00 | 0.00 | 0.00 | 42 | 1004.2 |
| 20260903152003 | 13 | 180 | 29.0 | 0.0 | 0.00 | 0.00 | 0.00 | 42 | 1004.2 |
| 20260903151613 | 13 | 165 | 29.0 | 0.0 | 0.00 | 0.00 | 0.00 | 42 | 1004.2 |
| 20260903151004 | 13 | 175 | 27.4 | 0.0 | 0.00 | 0.00 | 0.00 | 42 | 1004.2 |
| 20260903150601 | 13 | 182 | 27.4 | 0.0 | 0.00 | 0.00 | 0.00 | 42 | 1004.1 |
| 20260903150108 | 13 | 177 | 25.7 | 0.0 | 0.00 | 0.00 | 0.00 | 41 | 1004.2 |
| 20260903145607 | 13 | 191 | 24.1 | 0.0 | 0.00 | 0.00 | 0.00 | 42 | 1004.1 |
| 20260903145104 | 13 | 169 | 24.1 | 0.0 | 0.00 | 0.00 | 0.00 | 42 | 1004.1 |
| 20260903144502 | 13 | 131 | 24.1 | 0.0 | 0.00 | 0.00 | 0.00 | 42 | 1004.1 |
| 20260903144010 | 13 | 163 | 25.7 | 0.0 | 0.00 | 0.00 | 0.00 | 41 | 1004.0 |
| 20260903143528 | 13 | 177 | 27.4 | 0.0 | 0.00 | 0.00 | 0.00 | 41 | 1004.1 |
| 20260903143042 | 13 | 172 | 29.0 | 0.0 | 0.00 | 0.00 | 0.00 | 41 | 1004.1 |
| 20260903142545 | 13 | 164 | 30.6 | 0.0 | 0.00 | 0.00 | 0.00 | 40 | 1004.1 |
| 20260903142012 | 13 | 130 | 27.4 | 0.0 | 0.00 | 0.00 | 0.00 | 40 | 1004.0 |
| 20260903141526 | 13 | 126 | 27.4 | 0.0 | 0.00 | 0.00 | 0.00 | 40 | 1004.0 |
| 20260903141036 | 13 | 180 | 27.4 | 0.0 | 0.00 | 0.00 | 0.00 | 40 | 1003.8 |
| 20260903140550 | 13 | 171 | 27.4 | 0.0 | 0.00 | 0.00 | 0.00 | 40 | 1003.8 |
| 20260903140057 | 13 | 182 | 24.1 | 0.0 | 0.00 | 0.00 | 0.00 | 40 | 1003.9 |
| 20260903135513 | 12 | 155 | 24.1 | 0.0 | 0.00 | 0.00 | 0.00 | 40 | 1003.9 |
| 20260903135026 | 12 | 171 | 22.5 | 0.0 | 0.00 | 0.00 | 0.00 | 40 | 1003.8 |
| 20260903134548 | 12 | 171 | 22.5 | 0.0 | 0.00 | 0.00 | 0.00 | 40 | 1003.8 |
| 20260903134055 | 12 | 171 | 24.1 | 0.0 | 0.00 | 0.00 | 0.00 | 40 | 1003.8 |
| 20260903133502 | 12 | 196 | 22.5 | 0.0 | 0.00 | 0.00 | 0.00 | 40 | 1003.8 |
| 20260903133020 | 12 | 170 | 19.3 | 0.0 | 0.00 | 0.00 | 0.00 | 40 | 1003.8 |
| 20260903132526 | 12 | 182 | 20.9 | 0.0 | 0.00 | 0.00 | 0.00 | 40 | 1003.7 |
| 20260903132043 | 12 | 154 | 24.1 | 0.0 | 0.00 | 0.00 | 0.00 | 40 | 1003.8 |
| 20260903131503 | 12 | 174 | 20.9 | 0.0 | 0.00 | 0.00 | 0.00 | 40 | 1003.8 |
| 20260903131024 | 12 | 209 | 19.3 | 0.0 | 0.00 | 0.00 | 0.00 | 41 | 1003.7 |
| 20260903130537 | 11 | 146 | 17.7 | 0.0 | 0.00 | 0.00 | 0.00 | 42 | 1003.6 |
| 20260903130051 | 11 | 178 | 14.5 | 0.0 | 0.00 | 0.00 | 0.00 | 43 | 1003.7 |
| 20260903125556 | 10 | 166 | 12.9 | 0.0 | 0.00 | 0.00 | 0.00 | 44 | 1003.8 |
| 20260903125014 | 10 | 178 | 11.3 | 0.0 | 0.00 | 0.00 | 0.00 | 45 | 1003.7 |
| 20260903124533 | 10 | 176 | 9.7 | 0.0 | 0.00 | 0.00 | 0.00 | 45 | 1003.7 |
| 20260903124051 | 11 | 166 | 11.3 | 0.0 | 0.00 | 0.00 | 0.00 | 44 | 1003.6 |
| 20260903123501 | 11 | 158 | 11.3 | 0.0 | 0.00 | 0.00 | 0.00 | 43 | 1003.6 |
| 20260903123022 | 11 | 159 | 12.9 | 0.0 | 0.00 | 0.00 | 0.00 | 43 | 1003.7 |
| 20260903122537 | 11 | 162 | 12.9 | 0.0 | 0.00 | 0.00 | 0.00 | 42 | 1003.8 |
| 20260903122046 | 12 | 152 | 12.9 | 0.0 | 0.00 | 0.00 | 0.00 | 42 | 1003.8 |
| 20260903121604 | 12 | 129 | 12.9 | 0.0 | 0.00 | 0.00 | 0.00 | 40 | 1003.8 |
| 20260903121025 | 12 | 173 | 14.5 | 0.0 | 0.00 | 0.00 | 0.00 | 40 | 1003.8 |
| 20260903120549 | 12 | 204 | 17.7 | 0.0 | 0.00 | 0.00 | 0.00 | 39 | 1003.8 |
| 20260903120055 | 12 | 192 | 20.9 | 0.0 | 0.00 | 0.00 | 0.00 | 39 | 1003.9 |
| 20260903115511 | 12 | 217 | 17.7 | 0.0 | 0.00 | 0.00 | 0.00 | 40 | 1003.9 |
| 20260903115020 | 12 | 182 | 12.9 | 0.0 | 0.00 | 0.00 | 0.00 | 41 | 1003.8 |
| 20260903114531 | 12 | 180 | 12.9 | 0.0 | 0.00 | 0.00 | 0.00 | 43 | 1003.9 |
| 20260903114040 | 12 | 183 | 12.9 | 0.0 | 0.00 | 0.00 | 0.00 | 43 | 1003.9 |
| 20260903113551 | 12 | 215 | 14.5 | 0.0 | 0.00 | 0.00 | 0.00 | 43 | 1003.9 |
| 20260903113051 | 12 | 194 | 17.7 | 0.0 | 0.00 | 0.00 | 0.00 | 44 | 1003.9 |
| 20260903112514 | 12 | 200 | 22.5 | 0.0 | 0.00 | 0.00 | 0.00 | 44 | 1003.8 |
| 20260903112025 | 12 | 211 | 29.0 | 0.0 | 0.00 | 0.00 | 0.00 | 43 | 1004.1 |
| 20260903111534 | 12 | 157 | 32.2 | 0.0 | 0.00 | 0.00 | 0.00 | 43 | 1003.8 |
| 20260903111049 | 12 | 180 | 35.4 | 0.0 | 0.00 | 0.00 | 0.00 | 41 | 1003.5 |
| 20260903110553 | 12 | 173 | 33.8 | 0.0 | 0.00 | 0.00 | 0.00 | 40 | 1003.6 |
| 20260903110049 | 13 | 167 | 30.6 | 0.0 | 0.00 | 0.00 | 0.00 | 39 | 1003.4 |
| 20260903105507 | 13 | 128 | 25.7 | 0.0 | 0.00 | 0.00 | 0.00 | 36 | 1003.3 |
| 20260903105024 | 13 | 176 | 27.4 | 0.0 | 0.00 | 0.00 | 0.00 | 36 | 1003.3 |
| 20260903104533 | 13 | 134 | 29.0 | 0.0 | 0.00 | 0.00 | 0.00 | 36 | 1003.1 |
| 20260903104040 | 13 | 140 | 29.0 | 0.0 | 0.00 | 0.00 | 0.00 | 36 | 1002.9 |
| 20260903103552 | 13 | 181 | 27.4 | 0.0 | 0.00 | 0.00 | 0.00 | 35 | 1002.8 |
| 20260903103101 | 13 | 173 | 25.7 | 0.0 | 0.00 | 0.00 | 0.00 | 34 | 1002.7 |
| 20260903102509 | 14 | 150 | 25.7 | 0.0 | 0.00 | 0.00 | 0.00 | 33 | 1002.6 |
| 20260903102031 | 14 | 178 | 25.7 | 0.0 | 0.00 | 0.00 | 0.00 | 32 | 1002.6 |
| 20260903101551 | 14 | 161 | 25.7 | 0.0 | 0.00 | 0.00 | 0.00 | 32 | 1002.5 |
| 20260903101102 | 14 | 145 | 27.4 | 0.0 | 0.00 | 0.00 | 0.00 | 32 | 1002.5 |
| 20260903100511 | 14 | 177 | 27.4 | 0.0 | 0.00 | 0.00 | 0.00 | 32 | 1002.3 |
| 20260903100028 | 14 | 171 | 27.4 | 0.0 | 0.00 | 0.00 | 0.00 | 32 | 1002.1 |
| 20260903095539 | 14 | 178 | 27.4 | 0.0 | 0.00 | 0.00 | 0.00 | 32 | 1002.1 |
| 20260903095048 | 14 | 150 | 27.4 | 0.0 | 0.00 | 0.00 | 0.00 | 31 | 1002.1 |
| 20260903094505 | 14 | 135 | 30.6 | 0.0 | 0.00 | 0.00 | 0.00 | 31 | 1002.1 |
| 20260903094027 | 15 | 168 | 29.0 | 0.0 | 0.00 | 0.00 | 0.00 | 31 | 1002.1 |
| 20260903093542 | 14 | 171 | 25.7 | 0.0 | 0.00 | 0.00 | 0.00 | 31 | 1002.2 |
| 20260903093102 | 14 | 173 | 25.7 | 0.0 | 0.00 | 0.00 | 0.00 | 31 | 1002.2 |
| 20260903092517 | 14 | 126 | 27.4 | 0.0 | 0.00 | 0.00 | 0.00 | 31 | 1002.2 |
| 20260903092028 | 14 | 126 | 25.7 | 0.0 | 0.00 | 0.00 | 0.00 | 30 | 1002.2 |
| 20260903091541 | 14 | 149 | 25.7 | 0.0 | 0.00 | 0.00 | 0.00 | 30 | 1002.0 |
| 20260903091054 | 14 | 173 | 27.4 | 0.0 | 0.00 | 0.00 | 0.00 | 29 | 1002.1 |
| 20260903090508 | 14 | 175 | 22.5 | 0.0 | 0.00 | 0.00 | 0.00 | 30 | 1002.3 |
| 20260903090015 | 14 | 146 | 22.5 | 0.0 | 0.00 | 0.00 | 0.00 | 29 | 1002.5 |
| 20260903085528 | 14 | 169 | 24.1 | 0.0 | 0.00 | 0.00 | 0.00 | 29 | 1002.6 |
| 20260903085047 | 14 | 179 | 22.5 | 0.0 | 0.00 | 0.00 | 0.00 | 29 | 1002.7 |
| 20260903084557 | 14 | 148 | 20.9 | 0.0 | 0.00 | 0.00 | 0.00 | 29 | 1002.7 |
| 20260903084006 | 14 | 165 | 22.5 | 0.0 | 0.00 | 0.00 | 0.00 | 28 | 1002.7 |
| 20260903083528 | 14 | 130 | 24.1 | 0.0 | 0.00 | 0.00 | 0.00 | 28 | 1002.7 |
| 20260903083047 | 14 | 167 | 24.1 | 0.0 | 0.00 | 0.00 | 0.00 | 28 | 1002.7 |
| 20260903082558 | 14 | 169 | 24.1 | 0.0 | 0.00 | 0.00 | 0.00 | 28 | 1002.8 |
| 20260903082002 | 14 | 176 | 24.1 | 0.0 | 0.00 | 0.00 | 0.00 | 28 | 1002.9 |
| 20260903081534 | 14 | 163 | 24.1 | 0.0 | 0.00 | 0.00 | 0.00 | 28 | 1002.8 |
| 20260903081040 | 14 | 133 | 24.1 | 0.0 | 0.00 | 0.00 | 0.00 | 28 | 1002.9 |
| 20260903080556 | 14 | 161 | 25.7 | 0.0 | 0.00 | 0.00 | 0.00 | 27 | 1002.7 |
| 20260903080009 | 14 | 152 | 27.4 | 0.0 | 0.00 | 0.00 | 0.00 | 27 | 1002.9 |
| 20260903075535 | 14 | 169 | 27.4 | 0.0 | 0.00 | 0.00 | 0.00 | 27 | 1002.7 |
| 20260903075040 | 14 | 172 | 25.7 | 0.0 | 0.00 | 0.00 | 0.00 | 28 | 1002.7 |
| 20260903074552 | 14 | 148 | 22.5 | 0.0 | 0.00 | 0.00 | 0.00 | 28 | 1002.7 |
| 20260903074008 | 13 | 170 | 22.5 | 0.0 | 0.00 | 0.00 | 0.00 | 28 | 1002.7 |
| 20260903073533 | 13 | 163 | 22.5 | 0.0 | 0.00 | 0.00 | 0.00 | 28 | 1002.7 |
| 20260903073058 | 13 | 188 | 22.5 | 0.0 | 0.00 | 0.00 | 0.00 | 28 | 1002.7 |
| 20260903072557 | 13 | 161 | 20.9 | 0.0 | 0.00 | 0.00 | 0.00 | 29 | 1002.7 |
| 20260903072009 | 13 | 194 | 20.9 | 0.0 | 0.00 | 0.00 | 0.00 | 29 | 1002.8 |
| 20260903071532 | 13 | 190 | 25.7 | 0.0 | 0.00 | 0.00 | 0.00 | 29 | 1002.8 |
| 20260903071052 | 14 | 167 | 27.4 | 0.0 | 0.00 | 0.00 | 0.00 | 27 | 1002.8 |
| 20260903070557 | 14 | 170 | 25.7 | 0.0 | 0.00 | 0.00 | 0.00 | 27 | 1002.9 |
| 20260903070003 | 13 | 166 | 20.9 | 0.0 | 0.00 | 0.00 | 0.00 | 28 | 1002.7 |
| 20260903065517 | 13 | 165 | 19.3 | 0.0 | 0.00 | 0.00 | 0.00 | 29 | 1002.7 |
| 20260903065028 | 13 | 192 | 20.9 | 0.0 | 0.00 | 0.00 | 0.00 | 28 | 1002.7 |
| 20260903064537 | 13 | 165 | 22.5 | 0.0 | 0.00 | 0.00 | 0.00 | 28 | 1002.7 |
| 20260903064046 | 13 | 180 | 22.5 | 0.0 | 0.00 | 0.00 | 0.00 | 28 | 1002.7 |
| 20260903063553 | 13 | 198 | 22.5 | 0.0 | 0.00 | 0.00 | 0.00 | 29 | 1002.8 |
| 20260903063008 | 13 | 165 | 20.9 | 0.0 | 0.00 | 0.00 | 0.00 | 29 | 1002.8 |
| 20260903062516 | 13 | 182 | 22.5 | 0.0 | 0.00 | 0.00 | 0.00 | 29 | 1002.8 |
| 20260903062025 | 13 | 174 | 22.5 | 0.0 | 0.00 | 0.00 | 0.00 | 30 | 1002.8 |
| 20260903061546 | 13 | 169 | 24.1 | 0.0 | 0.00 | 0.00 | 0.00 | 30 | 1002.8 |
| 20260903061057 | 13 | 152 | 24.1 | 0.0 | 0.00 | 0.00 | 0.00 | 30 | 1002.8 |
| 20260903060517 | 13 | 165 | 22.5 | 0.0 | 0.00 | 0.00 | 0.00 | 29 | 1002.8 |
| 20260903060033 | 13 | 175 | 22.5 | 0.0 | 0.00 | 0.00 | 0.05 | 29 | 1002.6 |
| 20260903055548 | 13 | 119 | 24.1 | 0.0 | 0.00 | 0.00 | 0.05 | 29 | 1002.6 |
| 20260903055055 | 14 | 154 | 25.7 | 0.0 | 0.00 | 0.00 | 0.05 | 28 | 1002.4 |
| 20260903054503 | 14 | 148 | 22.5 | 0.0 | 0.00 | 0.00 | 0.05 | 28 | 1002.4 |
| 20260903054031 | 13 | 148 | 19.3 | 0.0 | 0.00 | 0.00 | 0.05 | 28 | 1002.5 |
| 20260903053553 | 14 | 153 | 17.7 | 0.0 | 0.00 | 0.00 | 0.05 | 28 | 1002.6 |
| 20260903053102 | 14 | 167 | 20.9 | 0.0 | 0.00 | 0.00 | 0.05 | 27 | 1002.6 |
| 20260903052521 | 14 | 152 | 19.3 | 0.0 | 0.00 | 0.00 | 0.05 | 27 | 1002.6 |
| 20260903052040 | 14 | 140 | 17.7 | 0.0 | 0.00 | 0.00 | 0.05 | 27 | 1002.6 |
| 20260903051551 | 14 | 169 | 17.7 | 0.0 | 0.00 | 0.00 | 0.05 | 27 | 1002.8 |
| 20260903051007 | 14 | 176 | 17.7 | 0.0 | 0.00 | 0.00 | 0.05 | 26 | 1002.8 |
| 20260903050529 | 14 | 119 | 16.1 | 0.0 | 0.00 | 0.00 | 0.05 | 26 | 1002.7 |
| 20260903050036 | 14 | 184 | 16.1 | 0.0 | 0.00 | 0.00 | 0.05 | 26 | 1002.8 |
| 20260903045556 | 15 | 180 | 16.1 | 0.0 | 0.00 | 0.00 | 0.05 | 26 | 1002.8 |
| 20260903045014 | 14 | 159 | 14.5 | 0.0 | 0.00 | 0.00 | 0.05 | 26 | 1003.0 |
| 20260903044530 | 14 | 180 | 14.5 | 0.0 | 0.00 | 0.00 | 0.05 | 26 | 1003.2 |
| 20260903044043 | 15 | 145 | 14.5 | 0.0 | 0.00 | 0.00 | 0.05 | 26 | 1003.2 |
| 20260903043558 | 15 | 138 | 16.1 | 0.0 | 0.00 | 0.00 | 0.05 | 25 | 1003.3 |
| 20260903043020 | 15 | 170 | 17.7 | 0.0 | 0.00 | 0.00 | 0.05 | 25 | 1003.3 |
| 20260903042531 | 15 | 149 | 19.3 | 0.0 | 0.00 | 0.00 | 0.05 | 25 | 1003.4 |
| 20260903042054 | 15 | 157 | 20.9 | 0.0 | 0.00 | 0.00 | 0.05 | 25 | 1003.5 |
| 20260903041509 | 15 | 168 | 17.7 | 0.0 | 0.00 | 0.00 | 0.05 | 25 | 1003.4 |
| 20260903041031 | 15 | 172 | 16.1 | 0.0 | 0.00 | 0.00 | 0.05 | 25 | 1003.4 |
| 20260903040548 | 15 | 132 | 17.7 | 0.0 | 0.00 | 0.00 | 0.05 | 25 | 1003.5 |
| 20260903040104 | 15 | 167 | 19.3 | 0.0 | 0.00 | 0.00 | 0.05 | 25 | 1003.4 |
| 20260903035505 | 15 | 141 | 19.3 | 0.0 | 0.00 | 0.00 | 0.05 | 25 | 1003.2 |
| 20260903035024 | 15 | 192 | 19.3 | 0.0 | 0.00 | 0.00 | 0.05 | 26 | 1003.2 |
| 20260903034543 | 15 | 140 | 19.3 | 0.0 | 0.00 | 0.00 | 0.05 | 25 | 1003.2 |
| 20260903034103 | 15 | 178 | 19.3 | 0.0 | 0.00 | 0.00 | 0.05 | 25 | 1003.0 |
| 20260903033506 | 15 | 156 | 19.3 | 0.0 | 0.00 | 0.00 | 0.05 | 25 | 1003.0 |
| 20260903033025 | 15 | 167 | 22.5 | 0.0 | 0.00 | 0.00 | 0.05 | 24 | 1003.0 |
| 20260903032539 | 15 | 162 | 20.9 | 0.0 | 0.00 | 0.00 | 0.05 | 24 | 1003.1 |
| 20260903032057 | 15 | 144 | 19.3 | 0.0 | 0.00 | 0.00 | 0.05 | 24 | 1003.1 |
| 20260903031521 | 16 | 168 | 17.7 | 0.0 | 0.00 | 0.00 | 0.05 | 24 | 1003.1 |
| 20260903031023 | 16 | 175 | 17.7 | 0.0 | 0.00 | 0.00 | 0.05 | 24 | 1003.2 |
| 20260903030535 | 16 | 138 | 19.3 | 0.0 | 0.00 | 0.00 | 0.05 | 24 | 1003.2 |
| 20260903030045 | 16 | 146 | 20.9 | 0.0 | 0.00 | 0.00 | 0.05 | 23 | 1003.2 |
| 20260903025547 | 16 | 164 | 22.5 | 0.0 | 0.00 | 0.00 | 0.05 | 23 | 1003.2 |
| 20260903025053 | 16 | 136 | 24.1 | 0.0 | 0.00 | 0.00 | 0.05 | 23 | 1002.9 |
| 20260903024504 | 16 | 131 | 25.7 | 0.0 | 0.00 | 0.00 | 0.05 | 23 | 1002.9 |
| 20260903024012 | 16 | 160 | 25.7 | 0.0 | 0.00 | 0.00 | 0.05 | 23 | 1002.8 |
| 20260903023537 | 16 | 153 | 25.7 | 0.0 | 0.00 | 0.00 | 0.05 | 23 | 1002.5 |
| 20260903023058 | 16 | 139 | 25.7 | 0.0 | 0.00 | 0.00 | 0.05 | 23 | 1002.5 |
| 20260903022554 | 16 | 178 | 25.7 | 0.0 | 0.00 | 0.00 | 0.05 | 23 | 1002.6 |
| 20260903022005 | 16 | 197 | 27.4 | 0.0 | 0.00 | 0.00 | 0.05 | 23 | 1002.7 |
| 20260903021543 | 17 | 198 | 29.0 | 0.0 | 0.00 | 0.00 | 0.05 | 23 | 1002.7 |
| 20260903021044 | 17 | 178 | 30.6 | 0.0 | 0.00 | 0.00 | 0.05 | 22 | 1002.5 |
| 20260903020556 | 17 | 132 | 29.0 | 0.0 | 0.00 | 0.00 | 0.05 | 22 | 1002.4 |
| 20260903020007 | 17 | 146 | 30.6 | 0.0 | 0.00 | 0.00 | 0.05 | 22 | 1002.3 |
| 20260903015528 | 17 | 180 | 32.2 | 0.0 | 0.00 | 0.00 | 0.05 | 22 | 1002.5 |
| 20260903015046 | 17 | 168 | 32.2 | 0.0 | 0.00 | 0.00 | 0.05 | 21 | 1002.6 |
| 20260903014555 | 17 | 152 | 32.2 | 0.0 | 0.00 | 0.00 | 0.05 | 21 | 1002.6 |
| 20260903014004 | 17 | 186 | 32.2 | 0.0 | 0.00 | 0.00 | 0.05 | 21 | 1002.6 |
| 20260903013515 | 18 | 171 | 32.2 | 0.0 | 0.00 | 0.00 | 0.05 | 20 | 1002.6 |
| 20260903013034 | 18 | 188 | 33.8 | 0.0 | 0.00 | 0.00 | 0.05 | 20 | 1002.6 |
| 20260903012546 | 18 | 170 | 33.8 | 0.0 | 0.00 | 0.00 | 0.05 | 19 | 1002.3 |
| 20260903012055 | 18 | 159 | 32.2 | 0.0 | 0.00 | 0.00 | 0.05 | 19 | 1002.4 |
| 20260903011605 | 18 | 137 | 32.2 | 0.0 | 0.00 | 0.00 | 0.05 | 20 | 1002.4 |